When you browse on this site, cookies collect data to enhance your experience and personalize the content and advertising you see.
Visit our Privacy Policy to learn more. By continuing to use the site, you agree to this use of cookies and data.
  • In Latvia
  • List of Countries
  • For 7 days
  • Water Temperature
  • Weather Map
  • Weather Widgets
  • user-avatar
    Login

    Hourly Weather Sysoev

    Today, 25 August, Sunday

    Time Temperature Precipitation Wind Pressure Humidity
    00:00 +23°C° 0 mm 4 mps 760 mmHg 58%
    01:00 +22°C° 0 mm 4 mps 760 mmHg 59%
    02:00 +21°C° 0 mm 4 mps 760 mmHg 60%
    03:00 +21°C° 0 mm 4 mps 760 mmHg 59%
    04:00 +21°C° 0 mm 5 mps 760 mmHg 58%
    05:00 +21°C° 0 mm 5 mps 760 mmHg 57%
    06:00 +20°C° 0 mm 5 mps 760 mmHg 56%
    07:00 +22°C° 0 mm 5 mps 761 mmHg 50%
    08:00 +25°C° 0 mm 5 mps 761 mmHg 43%
    09:00 +27°C° 0 mm 5 mps 761 mmHg 35%
    10:00 +28°C° 0 mm 5 mps 761 mmHg 29%
    11:00 +30°C° 0 mm 5 mps 761 mmHg 24%
    12:00 +32°C° 0 mm 5 mps 760 mmHg 19%
    13:00 +32°C° 0 mm 5 mps 760 mmHg 19%
    14:00 +32°C° 0 mm 5 mps 760 mmHg 20%
    15:00 +33°C° 0 mm 5 mps 760 mmHg 19%
    16:00 +32°C° 0 mm 4 mps 760 mmHg 20%
    17:00 +30°C° 0 mm 4 mps 760 mmHg 21%
    18:00 +29°C° 0 mm 4 mps 760 mmHg 22%
    19:00 +28°C° 0 mm 4 mps 761 mmHg 27%
    20:00 +26°C° 0 mm 4 mps 761 mmHg 31%
    21:00 +25°C° 0 mm 4 mps 761 mmHg 35%
    22:00 +23°C° 0 mm 5 mps 762 mmHg 42%
    23:00 +22°C° 0 mm 6 mps 762 mmHg 49%

    Tomorrow, 26 August, Monday

    Time Temperature Precipitation Wind Pressure Humidity
    00:00 +21°C° 0 mm 7 mps 762 mmHg 55%
    01:00 +20°C° 0 mm 6 mps 762 mmHg 58%
    02:00 +19°C° 0 mm 6 mps 763 mmHg 61%
    03:00 +17°C° 0 mm 6 mps 763 mmHg 64%
    04:00 +17°C° 0 mm 5 mps 764 mmHg 65%
    05:00 +16°C° 0 mm 5 mps 764 mmHg 66%
    06:00 +16°C° 0 mm 5 mps 764 mmHg 66%
    07:00 +17°C° 0 mm 5 mps 765 mmHg 61%
    08:00 +20°C° 0 mm 6 mps 765 mmHg 56%
    09:00 +21°C° 0 mm 6 mps 765 mmHg 51%
    10:00 +22°C° 0 mm 6 mps 765 mmHg 44%
    11:00 +24°C° 0 mm 6 mps 765 mmHg 37%
    12:00 +26°C° 0 mm 6 mps 765 mmHg 31%
    13:00 +26°C° 0 mm 6 mps 765 mmHg 28%
    14:00 +27°C° 0 mm 5 mps 765 mmHg 26%
    15:00 +27°C° 0 mm 5 mps 765 mmHg 23%
    16:00 +26°C° 0 mm 5 mps 765 mmHg 25%
    17:00 +26°C° 0 mm 4 mps 765 mmHg 26%
    18:00 +25°C° 0 mm 4 mps 765 mmHg 27%
    19:00 +23°C° 0 mm 4 mps 765 mmHg 31%
    20:00 +21°C° 0 mm 3 mps 765 mmHg 35%
    21:00 +20°C° 0 mm 3 mps 765 mmHg 39%
    22:00 +19°C° 0 mm 3 mps 765 mmHg 42%
    23:00 +18°C° 0 mm 3 mps 765 mmHg 45%

    Day after tomorrow, 27 August, Tuesday

    Time Temperature Precipitation Wind Pressure Humidity
    00:00 +17°C° 0 mm 2 mps 765 mmHg 48%
    01:00 +17°C° 0 mm 2 mps 765 mmHg 51%
    02:00 +16°C° 0 mm 2 mps 765 mmHg 53%
    03:00 +16°C° 0 mm 2 mps 764 mmHg 55%
    04:00 +16°C° 0 mm 2 mps 764 mmHg 54%
    05:00 +16°C° 0 mm 2 mps 764 mmHg 54%
    06:00 +17°C° 0 mm 2 mps 763 mmHg 53%
    07:00 +19°C° 0 mm 2 mps 763 mmHg 46%
    08:00 +21°C° 0 mm 2 mps 763 mmHg 40%
    09:00 +22°C° 0 mm 3 mps 763 mmHg 34%
    10:00 +25°C° 0 mm 3 mps 762 mmHg 31%
    11:00 +26°C° 0 mm 4 mps 761 mmHg 27%
    12:00 +27°C° 0 mm 4 mps 761 mmHg 24%
    13:00 +27°C° 0 mm 5 mps 760 mmHg 24%
    14:00 +27°C° 0 mm 5 mps 760 mmHg 23%
    15:00 +27°C° 0 mm 6 mps 759 mmHg 23%
    16:00 +26°C° 0 mm 5 mps 759 mmHg 25%
    17:00 +26°C° 0 mm 5 mps 758 mmHg 28%
    18:00 +25°C° 0 mm 4 mps 758 mmHg 30%
    19:00 +23°C° 0 mm 4 mps 757 mmHg 34%
    20:00 +22°C° 0 mm 4 mps 757 mmHg 37%
    21:00 +21°C° 0 mm 4 mps 757 mmHg 41%
    22:00 +20°C° 0 mm 4 mps 757 mmHg 45%
    23:00 +20°C° 0 mm 4 mps 756 mmHg 49%

    28 August, Wednesday

    Time Temperature Precipitation Wind Pressure Humidity
    00:00 +19°C° 0 mm 4 mps 756 mmHg 54%
    01:00 +18°C° 0 mm 4 mps 756 mmHg 60%
    02:00 +18°C° 0 mm 4 mps 755 mmHg 67%
    03:00 +16°C° 0 mm 5 mps 755 mmHg 74%
    04:00 +16°C° 0 mm 5 mps 755 mmHg 72%
    05:00 +15°C° 0 mm 5 mps 755 mmHg 70%
    06:00 +15°C° 0 mm 5 mps 755 mmHg 69%
    07:00 +15°C° 0 mm 6 mps 755 mmHg 66%
    08:00 +16°C° 0 mm 7 mps 755 mmHg 63%
    09:00 +16°C° 0 mm 8 mps 755 mmHg 60%
    10:00 +16°C° 0 mm 8 mps 755 mmHg 53%
    11:00 +16°C° 0 mm 8 mps 756 mmHg 46%
    12:00 +16°C° 0 mm 9 mps 756 mmHg 39%
    13:00 +16°C° 0 mm 9 mps 756 mmHg 38%
    14:00 +16°C° 0 mm 9 mps 756 mmHg 36%
    15:00 +16°C° 0 mm 9 mps 757 mmHg 35%
    16:00 +15°C° 0 mm 9 mps 757 mmHg 37%
    17:00 +13°C° 0 mm 9 mps 757 mmHg 40%
    18:00 +12°C° 0 mm 8 mps 758 mmHg 42%
    19:00 +12°C° 0 mm 8 mps 758 mmHg 47%
    20:00 +11°C° 0 mm 7 mps 758 mmHg 51%
    21:00 +11°C° 0 mm 6 mps 758 mmHg 56%
    22:00 +11°C° 0 mm 7 mps 758 mmHg 56%
    23:00 +11°C° 0 mm 7 mps 758 mmHg 56%

    29 August, Thursday

    Time Temperature Precipitation Wind Pressure Humidity
    00:00 +12°C° 0 mm 8 mps 758 mmHg 56%
    01:00 +11°C° 0 mm 7 mps 758 mmHg 58%
    02:00 +11°C° 0 mm 7 mps 758 mmHg 59%
    03:00 +10°C° 0 mm 7 mps 758 mmHg 61%
    04:00 +10°C° 0 mm 7 mps 758 mmHg 62%
    05:00 +9°C° 0 mm 7 mps 759 mmHg 63%
    06:00 +9°C° 0 mm 8 mps 759 mmHg 64%
    07:00 +10°C° 0 mm 8 mps 759 mmHg 60%
    08:00 +11°C° 0 mm 8 mps 759 mmHg 56%
    09:00 +12°C° 0 mm 8 mps 759 mmHg 52%
    10:00 +13°C° 0 mm 8 mps 759 mmHg 48%
    11:00 +16°C° 0 mm 8 mps 759 mmHg 44%
    12:00 +17°C° 0 mm 8 mps 759 mmHg 40%
    13:00 +17°C° 0 mm 8 mps 759 mmHg 39%
    14:00 +17°C° 0 mm 8 mps 759 mmHg 38%
    15:00 +18°C° 0 mm 8 mps 759 mmHg 36%
    16:00 +17°C° 0 mm 8 mps 760 mmHg 39%
    17:00 +16°C° 0 mm 7 mps 760 mmHg 41%
    18:00 +15°C° 0 mm 7 mps 760 mmHg 43%
    19:00 +14°C° 0 mm 6 mps 760 mmHg 47%
    20:00 +13°C° 0 mm 5 mps 760 mmHg 52%
    21:00 +12°C° 0 mm 3 mps 761 mmHg 56%
    22:00 +11°C° 0 mm 4 mps 761 mmHg 57%
    23:00 +11°C° 0 mm 4 mps 761 mmHg 58%

    30 August, Friday

    Time Temperature Precipitation Wind Pressure Humidity
    00:00 +10°C° 0 mm 4 mps 761 mmHg 59%
    01:00 +10°C° 0 mm 4 mps 761 mmHg 59%
    02:00 +8°C° 0 mm 4 mps 761 mmHg 60%
    03:00 +8°C° 0 mm 5 mps 761 mmHg 60%
    04:00 +8°C° 0 mm 5 mps 761 mmHg 62%
    05:00 +8°C° 0 mm 5 mps 761 mmHg 64%
    06:00 +8°C° 0 mm 6 mps 761 mmHg 67%
    07:00 +9°C° 0 mm 6 mps 761 mmHg 63%
    08:00 +11°C° 0 mm 7 mps 761 mmHg 60%
    09:00 +12°C° 0 mm 7 mps 761 mmHg 57%
    10:00 +14°C° 0 mm 7 mps 761 mmHg 55%
    11:00 +15°C° 0 mm 6 mps 762 mmHg 53%
    12:00 +16°C° 0 mm 6 mps 762 mmHg 52%
    13:00 +17°C° 0 mm 6 mps 762 mmHg 48%
    14:00 +19°C° 0 mm 6 mps 761 mmHg 44%
    15:00 +20°C° 0 mm 6 mps 761 mmHg 40%
    16:00 +19°C° 0 mm 5 mps 762 mmHg 40%
    17:00 +19°C° 0 mm 5 mps 762 mmHg 40%
    18:00 +17°C° 0 mm 5 mps 762 mmHg 41%
    19:00 +16°C° 0 mm 5 mps 762 mmHg 43%
    20:00 +16°C° 0 mm 5 mps 762 mmHg 46%
    21:00 +15°C° 0 mm 5 mps 763 mmHg 49%
    22:00 +14°C° 0 mm 4 mps 763 mmHg 54%
    23:00 +12°C° 0 mm 4 mps 763 mmHg 58%
    Show more